カタログに戻る

STARLINK-32828

運用中通信VLEO
NORAD 63045·PAYLOAD·🇺🇸 United States

打ち上げ Feb 18, 2025 から Cape Canaveral Space Force Station

Loading…

次のパス (今後24時間)

TLE

最新Source: CelesTrak SupGP

元期: Sep 14, 2026, 20:50 UTC

1 63045C 25034S   26257.86854167 -.00056211  00000+0 -16608-2 0  2575
2 63045  53.1573 109.7824 0001337  87.0302 318.1429 15.34417368    10

AllMySatでSTARLINK-32828をリアルタイム追跡

Download on the App Store